Location: Bachas
(43.2439°N, 0.9375°E)
Time: 09:54:07
(UTC+00:00)

FENGYUN 3A - Pass Details

Date: 18 February 2020
Orbit: 824 x 836 km, 98.4° (Epoch: 03 April)

Event Time Altitude Azimuth Distance (km) Brightness Sun altitude
Rises 06:13:17 0° 3° (N) 3,395 6.8 -7.5°
Reaches altitude 10° 06:15:53 10° 353° (N) 2,457 6.0 -7.0°
Maximum altitude 06:20:32 30° 295° (WNW) 1,469 4.5 -6.2°
Drops below altitude 10° 06:25:10 10° 236° (SW) 2,445 5.7 -5.4°
Sets 06:27:46 0° 226° (SW) 3,374 6.5 -4.9°
